Location: Home
(42.5358°N, 72.7383°W)
Time: 18:57:08
(UTC-05:00)

Transit 4A - Pass Details

Date: 09 December 2021
Orbit: 863 x 981 km, 66.8° (Epoch: 23 January)

Event Time Altitude Azimuth Distance (km) Brightness Sun altitude
Rises 04:08:09 0° 318° (NW) 3,637 - -32.5°
Reaches altitude 10° 04:11:06 10° 306° (NW) 2,703 - -31.9°
Maximum altitude 04:16:09 26° 253° (WSW) 1,822 - -31.0°
Drops below altitude 10° 04:21:14 10° 200° (SSW) 2,722 - -30.0°
Exits shadow 04:22:46 - 193° (SSW) 3,192 10.6 -29.8°
Sets 04:24:13 0° 188° (S) 3,667 11.0 -29.5°
